Location: Ohmer (historical)
(38.0096°N, 122.0227°W)
Time: 00:22:17
(UTC+00:00)

IGS 5A - Pass Details

Date: 14 February 2026
Orbit: 551 x 554 km, 97.4° (Epoch: 8 January)

Event Time Altitude Azimuth Distance (km) Brightness Sun altitude
Rises 13:46:07 0° 13° (NNE) 2,735 7.0 -14.9°
Reaches altitude 10° 13:48:16 10° 15° (NNE) 1,836 6.1 -14.5°
Maximum altitude 13:52:14 76° 101° (E) 573 3.5 -13.7°
Drops below altitude 10° 13:56:11 10° 188° (S) 1,822 6.0 -13.0°
Sets 13:58:18 0° 190° (S) 2,712 6.8 -12.6°
